DW4433 Weather Reports


time (UTC)temp
F
wind
direction
speed
knots
gust
knots
rain 1hr
in
rain 24hr
in
rain mn
in
humidity
%
barometer
mb
20260507224535 49 22 0.0 0.0 0.00 0.00 0.00 100 1016.1
20260507223057 49 24 0.0 0.0 0.00 0.00 0.00 100 1016.0
20260507221522 49 26 0.0 0.9 0.00 0.00 0.00 100 1016.1
20260507220048 49 344 0.0 0.0 0.00 0.00 0.00 100 1016.3
20260507214553 49 345 0.0 0.9 0.00 0.00 0.00 100 1016.4
20260507213038 48 321 0.0 0.0 0.00 0.00 0.00 100 1016.4
20260507211533 48 202 0.0 0.0 0.00 0.00 0.00 100 1016.4
20260507210018 48 202 0.0 0.0 0.00 0.00 0.00 100 1016.4
20260507204512 50 202 0.0 0.0 0.00 0.00 0.00 100 1016.4
20260507203017 51 201 0.0 0.0 0.00 0.00 0.00 100 1016.2
20260507201502 51 202 0.0 0.0 0.00 0.00 0.00 100 1016.1
20260507200109 51 202 0.0 0.0 0.00 0.00 0.00 100 1015.7
20260507194554 52 202 0.0 0.0 0.00 0.00 0.00 100 1015.5
20260507193049 53 202 0.0 0.0 0.00 0.00 0.00 100 1015.4
20260507191542 54 202 0.0 0.0 0.00 0.00 0.00 100 1015.4
20260507190039 55 201 0.0 0.0 0.00 0.00 0.00 100 1015.4
20260507184534 55 200 0.0 1.7 0.00 0.00 0.00 100 1015.4
20260507183036 57 207 0.0 0.9 0.00 0.00 0.00 100 1015.3
20260507181523 59 202 0.0 1.7 0.00 0.00 0.00 15 1015.4
20260507180017 60 205 0.0 0.9 0.00 0.00 0.00 18 1015.3
20260507174519 59 195 0.0 1.7 0.00 0.00 0.00 11 1015.3
20260507173015 59 198 0.0 1.7 0.00 0.00 0.00 9 1015.3
20260507171503 58 200 0.0 1.7 0.00 0.00 0.00 100 1015.5
20260507170057 59 205 0.0 3.5 0.00 0.00 0.00 100 1015.5
20260507164554 59 202 0.0 3.5 0.00 0.00 0.00 100 1015.5
20260507163049 60 184 0.0 3.5 0.00 0.00 0.00 100 1015.4
20260507161551 60 198 0.0 1.7 0.00 0.00 0.00 100 1015.4
20260507160041 60 193 0.0 3.5 0.00 0.00 0.00 100 1015.5
20260507154534 59 194 0.0 4.3 0.00 0.00 0.00 100 1015.6
20260507153034 59 201 0.0 4.3 0.00 0.00 0.00 100 1015.7
20260507151525 60 181 0.0 4.3 0.00 0.00 0.00 100 1015.6
20260507150019 59 34 0.0 6.1 0.00 0.00 0.00 100 1015.7
20260507144520 60 194 1.7 6.1 0.00 0.00 0.00 100 1015.6
20260507143010 60 194 0.9 6.1 0.00 0.00 0.00 100 1015.6
20260507141536 61 235 0.9 6.1 0.00 0.00 0.00 100 1015.8
20260507140033 62 186 0.0 5.2 0.00 0.00 0.00 100 1015.9
20260507134525 61 191 0.0 4.3 0.00 0.00 0.00 100 1015.9
20260507133020 60 12 0.0 4.3 0.00 0.00 0.00 100 1015.9
20260507131523 61 187 0.9 6.1 0.00 0.00 0.00 100 1015.9
20260507130011 61 178 0.0 6.1 0.00 0.00 0.00 100 1016.0
20260507124505 60 186 0.9 5.2 0.00 0.00 0.00 100 1015.9
20260507123110 60 181 0.0 5.2 0.00 0.00 0.00 100 1016.0
20260507121601 60 162 0.9 7.0 0.00 0.00 0.00 100 1016.0
20260507120052 60 215 1.7 6.1 0.00 0.00 0.00 100 1016.0
20260507114550 61 199 0.9 6.1 0.00 0.00 0.00 100 1016.1
20260507113041 60 205 0.0 3.5 0.00 0.00 0.00 100 1016.1
20260507111536 59 210 0.9 6.1 0.00 0.00 0.00 100 1016.1
20260507110032 59 196 0.0 6.1 0.00 0.00 0.00 100 1016.1
20260507104525 58 192 0.0 4.3 0.00 0.00 0.00 100 1016.2
20260507103022 58 192 0.0 3.5 0.00 0.00 0.00 100 1016.2
20260507101523 57 197 0.9 5.2 0.00 0.00 0.00 100 1016.3
20260507100012 57 201 0.0 4.3 0.00 0.00 0.00 100 1016.3
20260507094505 57 224 0.0 3.5 0.00 0.00 0.00 100 1016.2
20260507093001 57 192 0.0 0.9 0.00 0.00 0.00 100 1016.2
20260507091559 57 177 0.0 3.5 0.00 0.00 0.00 100 1016.1
20260507090052 57 203 0.0 1.7 0.00 0.00 0.00 100 1016.0
20260507084518 57 178 0.0 0.0 0.00 0.00 0.00 100 1016.1
20260507083014 56 30 0.0 0.0 0.00 0.00 0.00 100 1016.0
20260507081507 55 36 0.0 0.0 0.00 0.00 0.00 100 1015.9
20260507080003 55 37 0.0 0.9 0.00 0.00 0.00 100 1015.9
20260507074618 54 340 0.0 0.0 0.00 0.00 0.00 100 1015.8
20260507073101 53 42 0.0 0.9 0.00 0.00 0.00 100 1015.9
20260507071550 52 57 0.0 0.0 0.00 0.00 0.00 100 1015.8
20260507070046 51 58 0.0 0.0 0.00 0.00 0.00 100 1015.7
20260507064542 51 59 0.0 0.0 0.00 0.00 0.00 100 1015.7
20260507063037 50 59 0.0 0.0 0.00 0.00 0.00 100 1015.6
20260507061531 50 65 0.0 0.0 0.00 0.00 0.00 100 1015.5
20260507060023 50 65 0.0 0.0 0.00 0.00 0.00 100 1015.4
20260507054523 50 317 0.0 0.0 0.00 0.00 0.00 100 1015.3
20260507053015 50 317 0.0 0.0 0.00 0.00 0.00 100 1015.1
20260507051511 49 323 0.0 0.0 0.00 0.00 0.00 100 1015.1
20260507050005 49 317 0.0 0.0 0.00 0.00 0.00 100 1015.1
20260507044601 49 317 0.0 0.0 0.00 0.00 0.00 100 1015.0
20260507043055 49 322 0.0 0.0 0.00 0.00 0.00 100 1014.9
20260507041551 49 324 0.0 0.0 0.00 0.00 0.00 100 1014.8
20260507040017 49 324 0.0 0.0 0.00 0.00 0.00 100 1014.8
20260507034516 48 326 0.0 0.0 0.00 0.00 0.00 100 1014.8
20260507033006 49 326 0.0 0.0 0.00 0.00 0.00 100 1014.7
20260507031502 49 326 0.0 0.0 0.00 0.00 0.00 100 1014.7
20260507030059 49 326 0.0 0.0 0.00 0.00 0.00 100 1014.7
20260507024608 50 326 0.0 0.0 0.00 0.00 0.00 100 1014.7
20260507023019 50 326 0.0 0.0 0.00 0.00 0.00 100 1014.6
20260507021516 50 326 0.0 0.0 0.00 0.00 0.00 100 1014.5
20260507020008 50 326 0.0 0.0 0.00 0.00 0.00 100 1014.4
20260507014508 50 326 0.0 0.0 0.00 0.00 0.00 100 1014.4
20260507013100 50 326 0.0 0.0 0.00 0.00 0.00 100 1014.5
20260507011555 51 326 0.0 0.0 0.00 0.00 0.00 100 1014.5
20260507010049 51 326 0.0 0.0 0.00 0.00 0.00 100 1014.5
20260507004546 51 326 0.0 0.0 0.00 0.00 0.00 100 1014.4
20260507003040 51 326 0.0 0.0 0.00 0.00 0.00 100 1014.4
20260507001535 51 326 0.0 0.0 0.00 0.00 0.00 100 1014.4
20260507000101 51 325 0.0 0.0 0.00 0.00 0.00 100 1014.4
20260506234602 51 326 0.0 0.0 0.00 0.00 0.00 100 1014.4
20260506233054 51 325 0.0 0.0 0.00 0.00 0.00 100 1014.4
20260506231555 51 326 0.0 0.0 0.00 0.00 0.00 100 1014.4
20260506230053 51 326 0.0 0.0 0.00 0.00 0.00 100 1014.4